[[{"header":{"parameterUnit":"m.s-1","parameterCategory":1,"la1":30.2991,"la2":30.254,"lo1":-89.0895,"lo2":-89.0444,"dy":0.0017,"dx":0.0017,"nx":28,"ny":28,"refTime":"2026-01-03T09:00:00:Z","depth":0,"parameterNumber":2,"parameterNumberName":"U-component_of_WINDS"},"data":[0,0,0,0,0,0,0,0,0,0,0,0,0,0,0,0,0,0,0,0,0,0,0,0,0,0,0,0,0,0,0,0,0,0,0,0,0,0,0,0,0,0,0,0,0,0,0,0,0,0,0,0,0,0,0,0,0,0,-1.0717,-1.0718,0,-1.0777,-1.0778,-1.0779,-1.078,-1.0779,-1.0778,-1.0778,-1.0837,-1.0839,-1.0842,0,0,0,0,0,0,0,0,0,0,0,0,0,-1.06,-1.0602,-1.0717,-1.0718,-1.0718,-1.0777,-1.0778,-1.0779,-1.078,-1.0779,-1.0778,-1.0777,-1.0836,-1.0839,-1.0842,0,0,0,0,0,0,0,0,0,0,0,0,0,-1.0654,-1.0602,-1.0717,-1.0726,-1.0727,-1.0777,-1.0778,-1.0779,-1.078,-1.0779,-1.0778,-1.0777,-1.0836,-1.0839,-1.0842,-1.0886,0,0,-1.0853,-1.0854,0,0,0,0,0,0,0,0,-1.0651,-1.0659,-1.0724,-1.0725,-1.0727,-1.077,-1.0759,-1.0815,-1.078,-1.076,-1.0778,-1.0776,-1.0816,-1.0821,-1.0834,-1.0889,-1.0891,-1.0853,-1.0855,-1.0857,-1.0858,0,0,0,0,0,0,0,-1.0647,-1.0656,-1.0741,-1.0725,-1.0727,-1.0726,-1.0733,-1.0769,-1.0793,-1.0762,-1.0762,-1.0769,-1.0816,-1.0831,-1.0836,-1.0892,-1.0853,-1.0856,-1.0858,-1.0859,-1.0986,-1.0987,0,0,0,0,0,0,-1.0642,-1.0653,-1.0739,-1.0743,-1.0686,-1.0729,-1.0737,-1.0757,-1.0793,-1.0797,-1.077,-1.0769,-1.0826,-1.0832,-1.0838,-1.0892,-1.0857,-1.086,-1.0862,-1.0984,-1.0986,-1.0987,0,0,0,0,0,0,-1.064,-1.065,-1.0736,-1.0698,-1.0709,-1.0733,-1.0756,-1.0759,-1.0774,-1.0799,-1.0803,-1.0781,-1.0825,-1.0833,-1.0874,-1.0894,-1.0861,-1.0864,-1.0983,-1.0985,-1.0987,-1.1,0,0,0,0,0,0,-1.0636,-1.0649,-1.0666,-1.0698,-1.0711,-1.0773,-1.0757,-1.0761,-1.078,-1.0779,-1.0811,-1.0815,-1.0825,-1.0869,-1.0878,-1.0898,-1.0867,-1.0981,-1.0984,-1.0986,-1.0998,-1.1002,-1.1006,0,0,0,0,0,-1.0632,-1.0667,-1.0667,-1.0678,-1.0733,-1.0774,-1.0781,-1.0793,-1.0782,-1.0799,-1.0815,-1.0814,-1.089,-1.0873,-1.0883,-1.0905,-1.098,-1.0983,-1.0986,-1.0996,-1.1001,-1.1006,0,0,0,0,0,0,-1.0636,-1.0671,-1.0672,-1.0719,-1.0743,-1.0774,-1.0796,-1.0798,-1.0825,-1.0823,-1.0835,-1.0842,-1.0884,-1.0898,-1.0879,-1.0949,-1.0934,-1.0939,-1.0938,-1.0943,-1.0947,-1.0943,-1.087,0,0,0,0,0,-1.0642,-1.0673,-1.0702,-1.074,-1.0753,-1.0772,-1.079,-1.0797,-1.0823,-1.0833,-1.0852,-1.0877,-1.0906,-1.0925,-1.0954,-1.1,-1.1006,-1.1019,-1.1023,-1.1026,-1.1031,-1.1056,-1.1062,-1.0997,-1.0997,-1.0997,0,0,-1.0656,-1.0679,-1.0697,-1.0742,-1.0762,-1.0792,-1.0781,-1.0814,-1.0837,-1.0838,-1.0879,-1.0893,-1.0921,-1.0965,-1.0985,-1.0978,-1.105,-1.103,-1.1032,-1.1035,-1.106,-1.1066,-1.1071,-1.0999,-1.0999,-1.0998,0,0,-1.0696,-1.0717,-1.0751,-1.0772,-1.0802,-1.0815,-1.0823,-1.0854,-1.0864,-1.0905,-1.0906,-1.0933,-1.0984,-1.1004,-1.102,-1.1068,-1.1068,-1.1077,-1.1098,-1.1122,-1.1128,-1.1132,-1.115,-1.1156,-1.1081,-1.1081,-1.1081,0,-1.0709,-1.0756,-1.0768,-1.0802,-1.0821,-1.0824,-1.0859,-1.0878,-1.0915,-1.0928,-1.092,-1.0984,-1.1003,-1.1052,-1.1063,-1.1077,-1.1086,-1.1074,-1.1126,-1.1131,-1.1135,-1.1152,-1.1158,-1.1082,-1.1082,-1.1082,-1.1082,0,-1.077,-1.0803,-1.0827,-1.0865,-1.0887,-1.0921,-1.0937,-1.0958,-1.0962,-1.0976,-1.1017,-1.104,-1.1074,-1.1085,-1.109,-1.1135,-1.113,-1.1123,-1.1109,-1.1142,-1.1158,-1.1165,-1.1083,-1.1083,-1.1083,-1.1083,0,0,-1.0816,-1.086,-1.0869,-1.0886,-1.092,-1.0945,-1.0978,-1.1012,-1.1029,-1.1055,-1.1084,-1.1126,-1.1121,-1.114,-1.1147,-1.1168,-1.1205,-1.1159,-1.116,-1.1168,-1.1256,-1.1261,-1.1268,-1.1205,-1.1206,-1.1207,-1.1254,0,-1.086,-1.0921,-1.0933,-1.0986,-1.1016,-1.1019,-1.1048,-1.1072,-1.1085,-1.1112,-1.1126,-1.1157,-1.1147,-1.1159,-1.118,-1.1196,-1.1223,-1.1193,-1.1231,-1.1232,-1.1225,-1.1277,-1.1282,-1.1326,-1.126,-1.1261,-1.1262,0,-1.0921,-1.0949,-1.1005,-1.1035,-1.1049,-1.1075,-1.1107,-1.1132,-1.1159,-1.1167,-1.1188,-1.1192,-1.1227,-1.121,-1.1257,-1.1236,-1.1252,-1.1262,-1.1264,-1.1269,-1.125,-1.1283,-1.134,-1.1346,-1.1272,-1.1271,-1.127,0,-1.0949,-1.1001,-1.1041,-1.1056,-1.1092,-1.111,-1.1126,-1.1151,-1.1171,-1.1198,-1.1211,-1.1241,-1.1258,-1.1281,-1.1293,-1.128,-1.134,-1.1324,-1.1347,-1.1347,-1.136,-1.136,-1.1421,-1.137,-1.1369,-1.1369,-1.1369,0,-1.0998,-1.1032,-1.1055,-1.108,-1.1118,-1.1131,-1.1168,-1.1183,-1.1206,-1.1233,-1.1237,-1.1262,-1.1276,-1.1304,-1.1313,-1.1351,-1.1358,-1.1366,-1.1368,-1.1366,-1.1365,-1.1377,-1.1375,-1.1371,-1.1371,-1.137,-1.137,0,-1.1036,-1.1053,-1.1097,-1.1128,-1.1136,-1.1163,-1.1189,-1.1213,-1.1226,-1.126,-1.1269,-1.1289,-1.1322,-1.1336,-1.1376,-1.1382,-1.1425,-1.1425,-1.1417,-1.1418,-1.1441,-1.1439,-1.1513,-1.1523,-1.1464,-1.1465,-1.1465,0,-1.1067,-1.1094,-1.1127,-1.1146,-1.1163,-1.1193,-1.1213,-1.1226,-1.1247,-1.1279,-1.1299,-1.1332,-1.1359,-1.141,-1.1428,-1.1458,-1.1459,-1.1483,-1.1463,-1.1461,-1.146,-1.1459,-1.1461,-1.1486,-1.1487,-1.1487,-1.1488,0,-1.112,-1.1127,-1.1156,-1.1188,-1.1212,-1.1238,-1.1263,-1.1278,-1.1295,-1.1318,-1.1352,-1.1373,-1.1413,-1.1446,-1.1477,-1.1492,-1.1493,-1.1494,-1.1501,-1.1499,-1.1494,-1.1498,-1.1427,-1.1492,-1.1492,-1.1491,-1.1491,-1.1491,-1.1156,-1.118,-1.1207,-1.124,-1.126,-1.1284,-1.1308,-1.1324,-1.1353,-1.1388,-1.1393,-1.1429,-1.1455,-1.1497,-1.1513,-1.1541,-1.1535,-1.1545,-1.1548,-1.1551,-1.1552,-1.1489,-1.1546,-1.1546,-1.1546,-1.1546,-1.1546,0,-1.1209,-1.1227,-1.1257,-1.1293,-1.1318,-1.1317,-1.1345,-1.1366,-1.1398,-1.1422,-1.1448,-1.1487,-1.1518,-1.1539,-1.157,-1.1588,-1.1589,-1.1596,-1.1595,-1.1599,-1.1555,-1.1547,-1.1595,-1.1595,-1.1595,-1.1595,-1.1595,-1.1595,-1.124,-1.1281,-1.1291,-1.1342,-1.1359,-1.1395,-1.1411,-1.1433,-1.1452,-1.1495,-1.1522,-1.1535,-1.1557,-1.159,-1.1619,-1.1624,-1.1635,-1.1643,-1.1647,-1.1607,-1.1602,-1.1597,-1.1589,-1.1645,-1.1645,-1.1689,-1.1689,-1.1689]},{"header":{"parameterUnit":"m.s-1","parameterCategory":1,"la1":30.2991,"la2":30.254,"lo1":-89.0895,"lo2":-89.0444,"dy":0.0017,"dx":0.0017,"nx":28,"ny":28,"refTime":"2026-01-03T09:00:00:Z","depth":0,"parameterNumber":3,"parameterNumberName":"V-component_of_WINDS"},"data":[0,0,0,0,0,0,0,0,0,0,0,0,0,0,0,0,0,0,0,0,0,0,0,0,0,0,0,0,0,0,0,0,0,0,0,0,0,0,0,0,0,0,0,0,0,0,0,0,0,0,0,0,0,0,0,0,0,0,-5.9227,-5.9228,0,-5.9321,-5.9322,-5.9323,-5.9266,-5.9264,-5.9261,-5.9258,-5.9347,-5.9352,-5.9357,0,0,0,0,0,0,0,0,0,0,0,0,0,-5.8991,-5.8995,-5.9227,-5.9228,-5.9229,-5.9321,-5.9322,-5.9324,-5.9267,-5.9263,-5.926,-5.9257,-5.9346,-5.9352,-5.9358,0,0,0,0,0,0,0,0,0,0,0,0,0,-5.909,-5.8997,-5.9227,-5.9212,-5.9212,-5.9321,-5.9323,-5.9324,-5.9267,-5.9263,-5.9259,-5.9256,-5.9344,-5.9351,-5.9358,-5.9485,0,0,-5.9381,-5.9384,0,0,0,0,0,0,0,0,-5.9084,-5.9098,-5.9213,-5.9213,-5.9213,-5.9278,-5.9272,-5.9378,-5.9268,-5.9246,-5.9258,-5.9254,-5.9327,-5.9336,-5.9362,-5.9489,-5.9493,-5.9381,-5.9386,-5.9389,-5.9391,0,0,0,0,0,0,0,-5.9077,-5.9094,-5.9264,-5.9215,-5.9215,-5.9199,-5.9208,-5.9292,-5.9308,-5.9248,-5.9244,-5.9256,-5.9326,-5.9355,-5.9364,-5.9494,-5.9381,-5.9388,-5.9392,-5.9395,-5.973,-5.9734,0,0,0,0,0,0,-5.9073,-5.9089,-5.9261,-5.9267,-5.9138,-5.9206,-5.9217,-5.9261,-5.9307,-5.931,-5.926,-5.9253,-5.9344,-5.9355,-5.9367,-5.9519,-5.9389,-5.9396,-5.94,-5.9725,-5.9731,-5.9736,0,0,0,0,0,0,-5.9068,-5.9089,-5.9257,-5.9177,-5.9197,-5.9215,-5.9265,-5.9265,-5.9294,-5.9316,-5.9318,-5.9287,-5.9342,-5.9356,-5.9456,-5.9521,-5.9399,-5.9406,-5.972,-5.9727,-5.9733,-5.9823,0,0,0,0,0,0,-5.9061,-5.9087,-5.9137,-5.9179,-5.9202,-5.9348,-5.9269,-5.927,-5.9308,-5.93,-5.9342,-5.9345,-5.934,-5.9446,-5.9464,-5.9529,-5.9412,-5.9714,-5.9723,-5.9731,-5.9814,-5.9832,-5.9847,0,0,0,0,0,-5.9053,-5.9157,-5.914,-5.9161,-5.9265,-5.9352,-5.9365,-5.9359,-5.9313,-5.9362,-5.9377,-5.9343,-5.9511,-5.9457,-5.9476,-5.9544,-5.971,-5.9721,-5.973,-5.9807,-5.9829,-5.9847,0,0,0,0,0,0,-5.9119,-5.9162,-5.9144,-5.9265,-5.9306,-5.9342,-5.9404,-5.9382,-5.9435,-5.9425,-5.9414,-5.9423,-5.9528,-5.9546,-5.9485,-5.9669,-5.9603,-5.9617,-5.9654,-5.9675,-5.9691,-5.9685,-5.9418,0,0,0,0,0,-5.9149,-5.9219,-5.925,-5.9354,-5.9376,-5.9387,-5.9424,-5.9417,-5.9457,-5.9474,-5.9495,-5.9534,-5.9595,-5.9636,-5.9693,-5.9816,-5.9824,-5.9873,-5.9889,-5.9902,-5.9915,-5.9982,-6.0004,-5.9769,-5.9769,-5.9768,0,0,-5.9209,-5.9241,-5.9285,-5.9368,-5.9399,-5.947,-5.9402,-5.9478,-5.953,-5.9484,-5.9582,-5.9599,-5.9641,-5.9754,-5.9804,-5.9771,-5.9982,-5.9915,-5.9926,-5.9931,-5.9994,-6.0017,-6.0037,-5.9776,-5.9774,-5.9773,0,0,-5.9355,-5.9386,-5.9477,-5.9509,-5.9558,-5.9565,-5.9586,-5.9627,-5.9638,-5.9735,-5.9703,-5.9762,-5.9868,-5.99,-5.993,-6.0089,-6.0061,-6.0108,-6.0194,-6.0259,-6.0277,-6.0294,-6.0351,-6.0372,-6.0121,-6.0121,-6.0121,0,-5.9423,-5.9531,-5.9525,-5.9606,-5.9643,-5.9607,-5.9698,-5.9729,-5.9793,-5.9818,-5.9781,-5.9914,-5.994,-6.006,-6.0099,-6.0124,-6.0148,-6.0104,-6.0276,-6.0292,-6.0307,-6.0362,-6.0383,-6.0126,-6.0126,-6.0125,-6.0125,0,-5.9612,-5.9687,-5.9754,-5.982,-5.9864,-5.9949,-5.9954,-6.0,-5.9988,-5.9998,-6.0098,-6.0128,-6.0191,-6.0219,-6.0207,-6.0337,-6.0316,-6.0277,-6.0211,-6.0335,-6.0386,-6.0407,-6.0134,-6.0132,-6.0131,-6.0129,0,0,-5.9803,-5.9866,-5.9891,-5.9921,-5.9972,-6.0029,-6.0111,-6.0176,-6.0215,-6.026,-6.0328,-6.0419,-6.0385,-6.0419,-6.041,-6.0467,-6.0592,-6.0422,-6.0423,-6.0453,-6.0738,-6.0768,-6.0792,-6.0573,-6.0577,-6.058,-6.0735,0,-5.9953,-6.0101,-6.0099,-6.0235,-6.0304,-6.0271,-6.0343,-6.0381,-6.0393,-6.0451,-6.0462,-6.0527,-6.0476,-6.0497,-6.0552,-6.0566,-6.0649,-6.0554,-6.0636,-6.0639,-6.0628,-6.0819,-6.085,-6.0995,-6.0755,-6.0758,-6.0761,0,-6.0148,-6.0204,-6.0348,-6.039,-6.0419,-6.0484,-6.0544,-6.06,-6.0642,-6.0646,-6.0685,-6.0667,-6.0749,-6.068,-6.0792,-6.0728,-6.076,-6.0772,-6.0777,-6.0785,-6.0708,-6.0833,-6.104,-6.1063,-6.0792,-6.0789,-6.0787,0,-6.0275,-6.0384,-6.0485,-6.0512,-6.0563,-6.061,-6.0633,-6.0671,-6.071,-6.0761,-6.0786,-6.0845,-6.0877,-6.0922,-6.092,-6.087,-6.1034,-6.0964,-6.1039,-6.1039,-6.1076,-6.1074,-6.1293,-6.1095,-6.1095,-6.1095,-6.1094,0,-6.0444,-6.0533,-6.0543,-6.0605,-6.0704,-6.0699,-6.0797,-6.0814,-6.0849,-6.0912,-6.0886,-6.0945,-6.0939,-6.0998,-6.0996,-6.109,-6.1104,-6.1109,-6.1108,-6.1112,-6.1112,-6.1134,-6.1124,-6.11,-6.1099,-6.1098,-6.1097,0,-6.0602,-6.0612,-6.072,-6.0761,-6.0773,-6.0844,-6.0878,-6.0936,-6.0945,-6.1026,-6.1044,-6.1058,-6.1127,-6.1129,-6.1207,-6.1206,-6.132,-6.1307,-6.1308,-6.1305,-6.138,-6.1374,-6.1622,-6.1655,-6.1436,-6.1438,-6.1439,0,-6.071,-6.0779,-6.0827,-6.087,-6.0897,-6.0964,-6.1005,-6.1002,-6.1045,-6.1099,-6.115,-6.1217,-6.127,-6.1381,-6.1396,-6.1456,-6.1444,-6.1527,-6.1453,-6.1456,-6.1447,-6.1443,-6.145,-6.1542,-6.1545,-6.1546,-6.1548,0,-6.09,-6.0902,-6.0964,-6.1028,-6.1078,-6.1128,-6.1173,-6.1208,-6.121,-6.126,-6.1332,-6.1373,-6.1454,-6.152,-6.1578,-6.1599,-6.1574,-6.1571,-6.1592,-6.1598,-6.1596,-6.1599,-6.1348,-6.1566,-6.1564,-6.1563,-6.1562,-6.1561,-6.1037,-6.1097,-6.1142,-6.1211,-6.1246,-6.129,-6.1347,-6.1365,-6.1425,-6.1493,-6.1486,-6.1566,-6.1605,-6.1681,-6.1707,-6.1767,-6.1738,-6.1768,-6.1775,-6.1783,-6.1792,-6.1586,-6.1777,-6.1777,-6.1776,-6.1776,-6.1775,0,-6.1227,-6.1255,-6.1319,-6.1386,-6.144,-6.1414,-6.1463,-6.151,-6.1581,-6.1621,-6.1675,-6.1757,-6.1822,-6.1843,-6.1905,-6.1949,-6.1939,-6.1966,-6.1963,-6.1968,-6.1814,-6.179,-6.1973,-6.1973,-6.1973,-6.1973,-6.1973,-6.1972,-6.1333,-6.1434,-6.1441,-6.1558,-6.1584,-6.1664,-6.1695,-6.1734,-6.1767,-6.1861,-6.1915,-6.1929,-6.1962,-6.2026,-6.2083,-6.2087,-6.2112,-6.2143,-6.2143,-6.1998,-6.1979,-6.196,-6.1938,-6.2148,-6.2148,-6.2292,-6.2293,-6.2294]}]]